Regional Weather Roundup
Issued by NWS Little Rock, AR

Home | Current Version | Previous Version | Graphics & Text | Print | Product List | Glossary On
Versions: 1 2 3 4 5 6 7 8 9 10 11 12 13 14 15 16 17 18 19 20 21 22 23 24 25 26 27 28 29 30 31 32 33 34 35 36 37 38 39 40 41 42 43 44 45 46 47 48 49
000
ASUS44 KLZK 021705
RWRLZK

WEATHER ROUNDUP FOR ARKANSAS
NATIONAL WEATHER SERVICE LITTLE ROCK AR
1200 PM CDT TUE JUN 02 2015

NOTE: "FAIR" INDICATES FEW OR NO CLOUDS BELOW 12,000 FEET WITH NO
SIGNIFICANT WEATHER AND/OR OBSTRUCTIONS TO VISIBILITY.

ARZ001-003-010-029-021800-
NORTHWEST ARKANSAS

CITY           SKY/WX    TMP DP  RH WIND       PRES   REMARKS
FAYETTEVILLE   CLOUDY    73  65  75 SW5       30.07F
FORT SMITH     PTSUNNY   77  65  66 NE5       30.05F
HARRISON       PTSUNNY   68  62  81 E7        30.10F
BENTONVILLE    CLOUDY    75  63  64 SW6       30.08S
ROGERS         CLOUDY    76  64  66 S6        30.08F
SILOAM SPGS    PTSUNNY   75  63  64 S6        30.08F
HIGHFILL       CLOUDY    75  65  70 SW5       30.06F
SPRINGDALE     PTSUNNY   75  64  69 SW8       30.09F
$$

ARZ004-005-016-021800-
NORTH CENTRAL ARKANSAS

CITY           SKY/WX    TMP DP  RH WIND       PRES   REMARKS
BATESVILLE     CLOUDY    72  59  64 E3        30.09F
FLIPPIN        CLOUDY    66  59  77 E5        30.10S
MTN HOME       CLOUDY    66  59  78 CALM      30.10S
$$

ARZ040-041-021800-
WEST CENTRAL ARKANSAS

CITY           SKY/WX    TMP DP  RH WIND       PRES   REMARKS
MENA           PTSUNNY   75  64  69 W3        30.09S
MOUNT IDA      CLOUDY    72  63  73 CALM      30.07S
$$

ARZ009-017-025-026-028-021800-
NORTHEAST ARKANSAS

CITY           SKY/WX    TMP DP  RH WIND       PRES   REMARKS
JONESBORO      CLOUDY    67  59  75 E9        30.09F
NEWPORT        CLOUDY    70  60  70 NE8       30.11F
WALNUT RIDGE   MOSUNNY   68  57  68 NE10      30.10F
BLYTHEVILLE    CLOUDY    70  59  68 N6        30.10S
NW BLYTHEVILLE CLOUDY    68  59  73 N5        30.10F
$$

ARZ022-023-033-042-044-021800-
CENTRAL ARKANSAS

CITY           SKY/WX    TMP DP  RH WIND       PRES   REMARKS
LITTLE ROCK    CLOUDY    74  61  63 CALM      30.09F
N LITTLE ROCK  CLOUDY    73  65  74 SE5       30.09F
JACKSONVILLE   CLOUDY    73  62  69 E5        30.08S
SEARCY         CLOUDY    72  62  71 NE8       30.10F
HOT SPRINGS    CLOUDY    73  63  70 VRB5      30.09F
RUSSELLVILLE   CLOUDY    72  64  76 CALM      30.08F
CLINTON        CLOUDY    72  63  73 CALM      30.10F
$$

ARZ036-021800-
EAST ARKANSAS

CITY           SKY/WX    TMP DP  RH WIND       PRES   REMARKS
WEST MEMPHIS   PTSUNNY   72  61  68 NE13      30.07F
$$

ARZ050-053-066-070-073-021800-
SOUTHWEST ARKANSAS

CITY           SKY/WX    TMP DP  RH WIND       PRES   REMARKS
ARKADELPHIA    PTSUNNY   76  65  68 CALM      30.09S
CAMDEN         CLOUDY    81  61  50 N3        30.07F
TEXARKANA      MOSUNNY   79  66  64 E5        30.06F
EL DORADO      MOSUNNY   78  62  57 VRB3      30.07F
DE QUEEN       CLOUDY    76  66  71 CALM      30.05S
$$

ARZ056-057-069-021800-
SOUTHEAST ARKANSAS

CITY           SKY/WX    TMP DP  RH WIND       PRES   REMARKS
PINE BLUFF     CLOUDY    73  62  68 NE3       30.09S
STUTTGART      CLOUDY    72  61  68 MISG      30.10S
MONTICELLO     MOSUNNY   76  62  62 CALM      30.08S

$$




USA.gov is the U.S. government's official web portal to all federal, state and local government web resources and services.